Flag for Madagascar Weather past 2 weeks in Antananarivo, Madagascar

Now
55 °F

Passing clouds.


Feels Like: 55 °F
Forecast: 55 / 72 °F
Wind: No wind

Location: Antananarivo / Ivato

Current Time: Sep 2, 2015 at 1:35:54 AM

Latest Report: Sep 2, 2015 at 12:30 AM


Visibility: N/A

Pressure: 30.33 "Hg (26.01 "Hg at 1287m altitude)

Humidity: 100%

Dew point: 55 °F

Location of AntananarivoLocation

Historic Weather in Antananarivo — Graph

°F

Antananarivo temperature yesterday

Maximum temperature yesterday: 70 °F (at 11:30 AM)
Minimum temperature yesterday: 55 °F (at 12:00 AM)
Average temperature yesterday: 61 °F

Past Weeks' High & Low Weather Summary

 TemperatureHumidityPressure
High79 °F (Aug 23, 2:00 PM)100% (Aug 18, 12:00 AM)30.36 "Hg (Aug 18, 12:00 AM)
Low48 °F (Aug 21, 6:00 AM)43% (Aug 30, 3:30 PM)30.12 "Hg (Aug 18, 2:00 PM)
Average61 °F85%30.28 "Hg
* Reported Midnight between Aug 17 and Aug 18 — Midnight between Sep 1 and Sep 2, Antananarivo, Weather by CustomWeather, © 2015

Note: Actual official high and low records may vary slightly from our data, if they occured in-between our weather recording intervals... More about our weather records

Advertising

Antananarivo weather history for previous 24 hours

 ConditionsComfort  
Time TempWeatherWind HumidityBarometerVisibility
12:00 AM
Wed, Sep 2
55 °FPassing clouds.No wind100%30.33 "HgN/A
11:30 PM
Tue, Sep 1
55 °FPassing clouds.3 mph100%30.33 "HgN/A
11:00 PM57 °FPassing clouds.5 mph100%30.33 "HgN/A
10:30 PM55 °FPassing clouds.5 mph100%30.33 "HgN/A
10:00 PM57 °FPassing clouds.1 mph100%30.36 "HgN/A
9:30 PM57 °FPassing clouds.1 mph100%30.36 "HgN/A
9:00 PM57 °FPassing clouds.6 mph100%30.36 "HgN/A
8:30 PM57 °FPassing clouds.5 mph100%30.33 "HgN/A
8:00 PM57 °FPassing clouds.7 mph100%30.33 "HgN/A
7:30 PM59 °FPassing clouds.7 mph100%30.33 "HgN/A
7:00 PM59 °FPassing clouds.6 mph100%30.30 "HgN/A
6:30 PM61 °FPartly cloudy.8 mph100%30.30 "HgN/A
6:00 PM61 °FPartly cloudy.12 mph100%30.30 "HgN/A
5:30 PM63 °FBroken clouds.9 mph94%30.30 "HgN/A
5:00 PM64 °FBroken clouds.7 mph88%30.30 "HgN/A
4:30 PM64 °FBroken clouds.10 mph88%30.30 "HgN/A
4:00 PM64 °FBroken clouds.12 mph88%30.27 "HgN/A
3:30 PM66 °FPartly sunny.13 mph83%30.27 "HgN/A
3:00 PM66 °FPartly sunny.10 mph83%30.27 "HgN/A
2:30 PM68 °FPartly sunny.12 mph78%30.27 "HgN/A
2:00 PM70 °FBroken clouds.14 mph73%30.27 "HgN/A
1:30 PM70 °FBroken clouds.13 mph73%30.27 "HgN/A
1:00 PM70 °FBroken clouds.13 mph78%30.30 "HgN/A
12:30 PM70 °FBroken clouds.12 mph73%30.30 "HgN/A
12:00 PM70 °FBroken clouds.14 mph69%30.30 "HgN/A
11:30 AM70 °FBroken clouds.12 mph78%30.33 "HgN/A
11:00 AM66 °FPartly sunny.13 mph78%30.33 "HgN/A
10:30 AM66 °FBroken clouds.12 mph83%30.36 "HgN/A
10:00 AM64 °FBroken clouds.14 mph83%30.36 "HgN/A
9:30 AM63 °FBroken clouds.13 mph94%30.36 "HgN/A
9:00 AM61 °FBroken clouds.10 mph94%30.36 "HgN/A
8:30 AM61 °FScattered showers. Broken clouds.10 mph100%30.33 "HgN/A
8:00 AM59 °FBroken clouds.No wind100%30.33 "HgN/A
6:30 AM55 °FDrizzle. Broken clouds.No wind100%30.30 "Hg4 mi
6:00 AM55 °FDrizzle. Broken clouds.No wind100%30.30 "Hg4 mi
5:30 AM55 °FPartly cloudy.5 mph100%30.30 "Hg4 mi
5:00 AM55 °FPassing clouds.2 mph100%30.27 "HgN/A
4:30 AM55 °FCool.N/A100%30.27 "HgN/A
4:00 AM55 °FPassing clouds.No wind100%30.30 "HgN/A
3:30 AM55 °FPassing clouds.No wind100%30.30 "HgN/A
3:00 AM55 °FPassing clouds.No wind100%30.30 "HgN/A
2:30 AM55 °FPassing clouds.No wind100%30.30 "HgN/A
2:00 AM55 °FPassing clouds.6 mph100%30.30 "HgN/A
Weather by CustomWeather, © 2015

See weather overviewHow to use our weather pages